sat.trackr.live / text

‹ back to catalog

2023-085A

NORAD 57004 · 2023-085A

PAYLOAD ACTIVE UNKNOWN

§ Identity

Operator
Country
PRC
Launch date
2023-06-15
Launch site
TAISC
Launch vehicle
Mass (kg)
RCS (m²)

External: N2YO · Heavens-Above · Gunter

§ Orbital elements

Epoch: 2026-05-25T03:28:10.395264Z

Period
94.12 min
Inclination
97.4933°
Eccentricity
0.0008450
Mean motion
15.29906534 rev/d
Perigee alt
470.3 km
Apogee alt
481.9 km
Semi-major
6,854.2 km
B*
4.1643e-4
RAAN
254.9473°
Arg perigee
111.3221°
Mean anomaly
248.8922°
Rev number
16,304

§ Raw data

2023-085A1 57004U 23085A   26145.14456476  .00012000  00000+0  41643-3 0  99922 57004  97.4933 254.9473 0008450 111.3221 248.8922 15.29906534163048

JSON: /api/v1/satellites/57004 · /tle

For live sub-satellite position, see the globe view (requires WebGL).

§ Visibility from observer

Set your observer location to see the next 7 days of passes ≥ 10°. The values pass through the URL so the page stays shareable.

No JS? Fill the form by hand. The geolocation button needs JavaScript.